Regional Weather Roundup
Issued by NWS

Home | Current Version | Previous Version | Graphics & Text | Print | Product List | Glossary On
Versions: 1 2 3 4 5 6 7 8 9 10 11 12 13 14 15 16 17 18 19 20 21 22 23 24 25 26 27 28 29 30 31 32 33 34 35 36 37 38 39 40 41 42 43 44 45 46 47 48 49 50
000
ASUS43 KLMK 241802
RWRKY
KENTUCKY REGIONAL WEATHER ROUNDUP
NATIONAL WEATHER SERVICE LOUISVILLE KY
200 PM EDT FRI MAR 24 2017

NOTE "FAIR" INDICATES FEW OR NO CLOUDS BELOW 12,000 FEET
WITH NO SIGNIFICANT WEATHER AND/OR OBSTRUCTIONS TO VISIBILITY.

KYZ001>023-026-027-061>063-070>075-241900-
WESTERN AND SOUTH CENTRAL KENTUCKY

CITY           SKY/WX    TMP DP  RH WIND       PRES   REMARKS
PADUCAH        CLOUDY    72  56  57 S15G31    30.14F
HENDERSON      CLOUDY    66  55  68 S20G33    30.15F
OWENSBORO      PTSUNNY   73  57  57 SW17      30.18S
HOPKINSVILLE   CLOUDY    74  55  50 S16       30.19F
BOWLING GREEN  SUNNY     75  54  47 S18G28    30.23F
GLASGOW        NOT AVBL
$$

KYZ024-025-028>034-038-045-046-053-241900-
NORTH CENTRAL KENTUCKY

CITY           SKY/WX    TMP DP  RH WIND       PRES   REMARKS
LOUISVILLE/SDF MOSUNNY   78  51  38 S20G25    30.17F
LOUISVILLE/LOU MOSUNNY   77  53  43 SW16G25   30.18F
FORT KNOX      SUNNY     76  54  45 SW17G26   30.18F
$$

KYZ035>037-039>044-047>052-055>060-089>105-241900-
NORTHEAST KENTUCKY

CITY           SKY/WX    TMP DP  RH WIND       PRES   REMARKS
LEXINGTON      SUNNY     74  51  44 S23G30    30.23F
COVINGTON      MOSUNNY   73  53  49 S16G23    30.17F
FRANKFORT      SUNNY     75  50  41 S22G28    30.19F
$$

KYZ054-064>069-076>088-106>120-241900-
SOUTHEAST KENTUCKY

CITY           SKY/WX    TMP DP  RH WIND       PRES   REMARKS
JACKSON        CLOUDY    72  49  44 VRB3      30.29F
LONDON         CLOUDY    70  46  42 SW14G22   30.30F
SOMERSET       NOT AVBL
MIDDLESBORO    MOSUNNY   70  48  44 SW8       30.34F
MONTICELLO     CLOUDY    72  52  49 S8G29     30.31F
$$




USA.gov is the U.S. government's official web portal to all federal, state and local government web resources and services.